Weather History for Phuket, Thailand

Change the Weather History Date:

Saturday, October 6, 2012

  Actual Average Record
Temperature  
Mean Temperature 81 °F -  
Max Temperature 87 °F 87 °F 93 °F (1996)
Min Temperature 75 °F 76 °F 71 °F (1999)
Cooling Degree Days 16    
Growing Degree Days 31 (Base 50)    
Moisture  
Dew Point 75 °F    
Average Humidity 80    
Maximum Humidity 94    
Minimum Humidity 63    
Precipitation  
Precipitation 0.02 in 0.42 in - ()
Sea Level Pressure  
Sea Level Pressure 29.88 in    
Wind  
Wind Speed 5 mph ()    
Max Wind Speed 18 mph    
Max Gust Speed -    
Visibility 6.0 miles    
Events Rain    
Averages and records for this station are not official NWS values.
T = Trace of Precipitation, MM = Missing Value Source: Averaged Metar Reports

Daily Weather History Graph

Daily Weather History Graph

Search for Another Location

Airport:

Trip Planner

Search our weather history database for the weather conditions in past years. The results will help you decide how hot, cold, wet, or windy it might be!

Date:

Astronomy

Oct. 06, 2012 Rise Set
Actual Time 6:14 AM ICT 6:15 PM ICT
Civil Twilight 5:53 AM ICT 6:35 PM ICT
Nautical Twilight 5:29 AM ICT 7:00 PM ICT
Astronomical Twilight 5:04 AM ICT 7:24 PM ICT
Moon 10:53 PM ICT (10/6) 10:54 AM ICT (10/6)
Length of Visible Light 12h 42m
Length of Day
12h 00m
Waning Gibbous, 69% of the Moon is Illuminated
Oct 6
Waning Gibbous
Oct 8
Last Quarter
Oct 15
New
Oct 22
First Quarter
Oct 30
Full

Hourly Weather History & Observations

Time (ICT) Temp. Heat Index Dew Point Humidity Pressure Visibility Wind Dir Wind Speed Gust Speed Precip Events Conditions
12:00 AM 75.2 °F - 73.4 °F 94% 29.92 in 6.2 mi Calm Calm - N/A   Mostly Cloudy
12:30 AM 75.2 °F - 73.4 °F 94% 29.92 in 6.2 mi Calm Calm - N/A   Mostly Cloudy
1:00 AM 78 °F - 75 °F 88% 29.85 in 6 mi Calm Calm - -   Scattered Clouds
1:00 AM 75.2 °F - 73.4 °F 94% 29.89 in 6.2 mi Calm Calm - N/A   Mostly Cloudy
1:30 AM 75.2 °F - 73.4 °F 94% 29.89 in 6.2 mi Calm Calm - N/A   Mostly Cloudy
2:00 AM 75.2 °F - 73.4 °F 94% 29.89 in 6.2 mi Calm Calm - N/A   Mostly Cloudy
3:00 AM 75.2 °F - 73.4 °F 94% 29.86 in 6.2 mi Calm Calm - N/A   Mostly Cloudy
4:00 AM 75.2 °F - 73.4 °F 94% 29.86 in 6.2 mi Calm Calm - N/A   Mostly Cloudy
4:30 AM 75.2 °F - 73.4 °F 94% 29.86 in 6.2 mi Calm Calm - N/A   Mostly Cloudy
5:00 AM 75.2 °F - 73.4 °F 94% 29.86 in 6.2 mi Calm Calm - N/A   Mostly Cloudy
5:30 AM 77.0 °F - 75.2 °F 94% 29.86 in 6.2 mi WNW 6.9 mph - N/A   Mostly Cloudy
6:00 AM 77.0 °F - 73.4 °F 89% 29.89 in 6.2 mi Calm Calm - N/A   Mostly Cloudy
6:30 AM 78.8 °F - 73.4 °F 83% 29.89 in 6.2 mi NNW 8.1 mph - N/A   Mostly Cloudy
7:00 AM 81 °F - 77 °F 83% 29.86 in 6 mi WNW 5.8 mph - -   Scattered Clouds
7:00 AM 78.8 °F - 73.4 °F 83% 29.89 in 6.2 mi Calm Calm - N/A   Mostly Cloudy
7:30 AM 78.8 °F - 73.4 °F 83% 29.89 in 6.2 mi WNW 5.8 mph - N/A   Mostly Cloudy
8:00 AM 80.6 °F 85.4 °F 73.4 °F 79% 29.92 in 6.2 mi NW 5.8 mph - N/A   Mostly Cloudy
8:30 AM 84.2 °F 92.3 °F 75.2 °F 74% 29.92 in 6.2 mi West 6.9 mph - N/A   Mostly Cloudy
9:00 AM 84.2 °F 92.3 °F 75.2 °F 74% 29.92 in 6.2 mi WNW 9.2 mph - N/A   Mostly Cloudy
9:30 AM 84.2 °F 92.3 °F 75.2 °F 74% 29.95 in 6.2 mi WNW 12.7 mph - N/A   Mostly Cloudy
10:00 AM 84.2 °F 92.3 °F 75.2 °F 74% 29.95 in 6.2 mi West 12.7 mph - N/A   Mostly Cloudy
10:30 AM 86.0 °F 95.1 °F 75.2 °F 70% 29.95 in 6.2 mi West 13.8 mph - N/A   Mostly Cloudy
11:00 AM 84.2 °F 92.3 °F 75.2 °F 74% 29.92 in 6.2 mi West 13.8 mph - N/A   Mostly Cloudy
11:30 AM 86.0 °F 96.9 °F 77.0 °F 74% 29.92 in 6.2 mi West 11.5 mph - N/A   Mostly Cloudy
12:00 PM 86.0 °F 95.1 °F 75.2 °F 70% 29.92 in 6.2 mi West 12.7 mph - N/A   Mostly Cloudy
12:30 PM 86.0 °F 95.1 °F 75.2 °F 70% 29.89 in 6.2 mi West 12.7 mph - N/A   Mostly Cloudy
1:00 PM 85 °F - 74 °F 63% 29.85 in 7 mi West 4.6 mph - -   Scattered Clouds
1:00 PM 86.0 °F 93.4 °F 73.4 °F 66% 29.89 in 6.2 mi West 13.8 mph - N/A   Mostly Cloudy
1:30 PM 86.0 °F 93.4 °F 73.4 °F 66% 29.86 in 6.2 mi West 13.8 mph - N/A   Scattered Clouds
2:00 PM 86.0 °F 93.4 °F 73.4 °F 66% 29.86 in 6.2 mi West 12.7 mph - N/A   Scattered Clouds
2:30 PM 86.0 °F 93.4 °F 73.4 °F 66% 29.83 in 6.2 mi West 15.0 mph - N/A   Scattered Clouds
3:00 PM 86.0 °F 93.4 °F 73.4 °F 66% 29.83 in 6.2 mi WNW 15.0 mph - N/A   Scattered Clouds
4:00 PM 84.2 °F 92.3 °F 75.2 °F 74% 29.83 in 6.2 mi WNW 16.1 mph - N/A   Mostly Cloudy
4:30 PM 86.0 °F 95.1 °F 75.2 °F 70% 29.83 in 6.2 mi West 18.4 mph - N/A   Mostly Cloudy
5:00 PM 84.2 °F 92.3 °F 75.2 °F 74% 29.83 in 6.2 mi WNW 13.8 mph - N/A   Mostly Cloudy
5:30 PM 82.4 °F 89.5 °F 75.2 °F 79% 29.83 in 4.3 mi WNW 12.7 mph - N/A Rain Light Rain
6:00 PM 82.4 °F 89.5 °F 75.2 °F 79% 29.86 in 5.6 mi WNW 13.8 mph - N/A   Mostly Cloudy
6:30 PM 82.4 °F 89.5 °F 75.2 °F 79% 29.86 in 5.6 mi WNW 13.8 mph - N/A   Mostly Cloudy
7:00 PM 83 °F - 77 °F 77% 29.81 in 6 mi West 5.8 mph - -   Partly Cloudy
7:00 PM 82.4 °F 89.5 °F 75.2 °F 79% 29.86 in 5.6 mi West 13.8 mph - N/A   Mostly Cloudy
7:30 PM 82.4 °F 89.5 °F 75.2 °F 79% 29.89 in 5.6 mi WNW 11.5 mph - N/A   Mostly Cloudy
8:00 PM 82.4 °F 89.5 °F 75.2 °F 79% 29.89 in 5.6 mi WNW 9.2 mph - N/A   Mostly Cloudy
8:30 PM 82.4 °F 89.5 °F 75.2 °F 79% 29.89 in 5.6 mi WNW 6.9 mph - N/A   Mostly Cloudy
9:00 PM 82.4 °F 89.5 °F 75.2 °F 79% 29.92 in 5.6 mi WNW 10.4 mph - N/A   Mostly Cloudy
9:30 PM 82.4 °F 89.5 °F 75.2 °F 79% 29.92 in 5.6 mi WNW 9.2 mph - N/A   Mostly Cloudy
10:00 PM 82.4 °F 89.5 °F 75.2 °F 79% 29.92 in 5.6 mi WNW 8.1 mph - N/A   Mostly Cloudy
10:30 PM 82.4 °F 89.5 °F 75.2 °F 79% 29.92 in 5.6 mi WNW 6.9 mph - N/A   Mostly Cloudy
11:00 PM 82.4 °F 89.5 °F 75.2 °F 79% 29.92 in 5.6 mi West 8.1 mph - N/A   Mostly Cloudy
11:30 PM 82.4 °F 89.5 °F 75.2 °F 79% 29.92 in 5.6 mi WNW 8.1 mph - N/A   Mostly Cloudy